Torna al catalogo

USA 452

AttivoMilitareVLEO
NORAD 62351·PAYLOAD·🇺🇸 United States

Lanciato Dec 17, 2024 da Vandenberg Space Force Base

Loading…

Prossimi Passaggi (prossime 24 ore)

TLE

ObsoletoSource: Mike McCants

Epoca: Aug 14, 2026, 20:55 UTC

1 62351U 24243M   26226.87195153 0.00000000  00000-0  00000-0 0    02
2 62351  70.0190 134.7328 0003000  82.4103 277.5896 14.96713406    00

Traccia USA 452 in tempo reale con AllMySat

Download on the App Store